Location: Olsztyn
(53.7767°N, 20.4765°E)
Time: 22:01:24
(UTC+01:00)

Envisat - Pass Details

Date: 04 December 2022
Orbit: 763 x 765 km, 98.2° (Epoch: 07 February)

Event Time Altitude Azimuth Distance (km) Brightness Sun altitude
Rises 06:18:59 0° 6° (N) 3,249 6.1 -10.7°
Reaches altitude 10° 06:22:32 10° 340° (NNW) 2,317 5.1 -10.2°
Maximum altitude 06:24:48 13° 313° (NW) 2,103 4.7 -9.9°
Enters shadow 06:25:52 12° 300° (WNW) 2,149 4.6 -9.7°
